Location: Hochstatterhof
(48.7256°N, 10.3487°E)
Time: 01:55:39
(UTC+00:00)

MSX - Pass Details

Date: 26 September 2023
Orbit: 895 x 905 km, 98.9° (Epoch: 04 December)

Event Time Altitude Azimuth Distance (km) Brightness Sun altitude
Rises 01:48:53 0° 13° (NNE) 3,524 7.7 -31.5°
Reaches altitude 10° 01:51:18 10° 11° (N) 2,580 6.8 -31.2°
Enters shadow 01:55:55 56° 345° (NNW) 1,063 4.2 -30.6°
